Wind_Speed
10 13 12 8 11 16 15 10 9 9 9 8 7 9 8 6 5 5 7 9 6 5 8 10 12 13 14 16 15 15 15 15 15
12 12 12 9 10 14 15 13 11 8 8 8 8 9 9 7 7 5 6 7 5 7 12 13 13 13 13 14 15 16 16 15 15
11 16 17 15 13 10 14 16 12 12 11 10 11 11 9 9 9 7 7 6 6 9 10 10 11 12 14 15 16 16 17 18 19
16 18 13 12 15 11 16 18 16 16 15 13 12 12 11 11 10 8 6 6 8 7 10 10 11 13 15 18 19 18 18 19 20
20 16 14 17 22 17 22 20 20 19 16 14 14 13 12 13 13 10 7 7 7 9 10 11 13 16 20 21 20 20 19 18 20
22 35 15 8 20 17 20 21 21 20 17 17 15 12 12 14 14 11 10 10 11 11 12 14 16 20 21 21 21 22 20 18 17
21 32 15 12 16 17 18 18 20 21 21 22 19 16 15 15 13 15 14 15 15 15 16 18 21 23 24 22 19 19 19 17 16
24 28 17 12 16 18 20 22 23 23 24 24 21 15 12 11 14 17 17 18 18 19 20 22 24 28 25 20 18 17 17 19 19
17 21 27 14 14 16 18 22 27 26 26 28 22 11 7 10 16 16 17 19 20 20 21 23 25 27 26 21 18 17 17 18 20
10 10 18 16 17 14 12 25 21 19 22 12 17 8 8 12 14 17 21 21 20 22 25 25 27 26 23 18 17 18 19 21 23
9 13 18 19 16 19 14 20 16 17 16 15 16 22 13 14 15 17 18 20 20 20 18 23 22 21 19 17 17 19 22 25 26
14 10 11 14 18 20 19 18 16 15 17 18 17 12 13 8 9 10 13 13 14 17 20 21 20 18 17 17 18 20 22 23 24
15 16 15 17 16 16 30 20 16 16 15 15 6 5 9 7 5 10 12 14 16 20 20 18 17 18 19 20 20 21 22 22 22
17 16 17 17 18 24 28 19 17 14 16 11 7 9 7 7 11 10 11 15 18 20 17 16 17 18 19 19 20 21 22 23 24
17 15 12 13 15 18 14 12 16 17 15 12 11 11 10 10 7 9 13 17 18 18 17 18 19 20 21 22 22 22 23 24 24
12 10 8 11 11 12 15 17 16 15 15 15 12 12 12 9 7 10 13 17 18 19 20 20 20 21 21 21 21 22 22 22 23
12 15 13 13 16 18 16 17 15 14 13 11 12 12 9 9 10 12 15 17 18 18 19 20 20 20 20 20 20 21 22 23 25
17 19 18 17 18 18 18 15 13 13 13 12 12 11 11 12 12 14 16 17 17 16 17 17 18 18 19 19 20 20 21 23 23
21 23 18 15 14 12 10 11 12 12 11 13 13 14 14 14 15 17 17 17 16 16 17 18 18 18 19 19 19 20 22 22 23
20 19 15 11 10 8 7 9 11 11 12 13 13 15 16 18 20 21 20 19 16 16 15 16 18 16 15 16 17 18 19 20 20
Wind_Direction
167 221 214 203 182 201 203 194 193 203 214 224 222 223 231 242 246 292 321 326 342 343 339 345 347 348 348 356 356 352 348 341 334
220 231 210 215 186 186 198 191 195 200 217 231 243 247 249 244 244 261 303 316 315 323 323 328 339 337 332 334 342 350 350 345 338
226 228 211 204 183 193 199 191 204 217 225 235 246 252 252 242 230 243 276 279 312 317 322 320 324 333 335 339 339 341 343 344 340
235 226 229 221 206 196 199 197 210 224 232 237 247 255 250 238 228 233 251 265 299 300 301 303 321 332 335 337 338 336 336 334 334
251 200 224 240 200 195 198 204 216 226 235 240 245 250 242 227 219 236 252 264 273 292 306 310 325 332 334 333 333 329 328 328 325
236 211 244 199 188 194 203 211 218 227 235 235 238 243 228 219 226 237 250 256 272 290 307 318 317 325 326 327 328 326 325 327 326
226 220 251 210 213 190 204 221 233 235 235 236 230 227 223 218 229 244 263 274 281 298 316 316 316 318 320 322 326 327 325 322 321
217 231 229 224 242 217 223 245 248 246 238 230 223 213 225 226 230 246 268 283 286 300 309 315 315 318 315 317 323 324 321 323 325
230 227 219 232 266 250 231 252 253 240 236 195 220 201 236 242 242 257 276 283 288 293 303 306 304 311 316 317 315 319 322 320 321
233 240 235 247 269 225 256 248 255 245 241 282 276 240 248 268 251 260 275 279 287 295 303 308 302 301 305 310 318 321 323 324 324
233 210 220 233 253 235 269 256 260 256 283 284 286 265 235 264 234 252 270 284 290 300 305 305 305 303 305 313 320 325 325 325 324
254 254 230 220 243 234 243 261 264 275 291 294 311 197 239 226 248 257 267 289 300 303 303 308 308 305 309 316 319 322 321 321 321
222 235 229 228 231 234 231 248 252 273 286 288 302 261 213 265 253 255 276 296 302 302 309 310 302 304 311 314 318 320 319 320 321
242 239 234 237 229 237 222 237 263 271 278 281 263 227 252 279 245 268 293 299 306 308 307 301 303 306 309 312 317 319 320 319 319
265 254 249 230 230 250 279 274 272 276 267 274 264 243 252 231 244 281 296 308 307 306 305 306 308 308 310 314 314 314 315 315 316
272 262 240 232 238 251 255 266 268 264 261 261 236 242 223 222 258 291 310 315 310 308 307 305 302 303 305 305 305 307 309 311 312
258 248 247 243 252 254 255 255 253 246 240 233 253 227 231 262 292 304 314 319 310 302 299 300 302 300 299 301 304 307 311 311 314
245 251 252 241 250 250 249 252 248 233 228 241 221 229 250 275 296 306 310 313 310 300 293 293 294 295 298 302 305 308 312 314 315
241 236 233 232 234 238 234 231 227 236 226 217 224 240 259 276 289 296 300 301 297 293 296 298 300 301 301 304 306 309 312 317 320
207 207 211 213 213 214 220 223 227 227 228 236 248 260 272 281 287 293 296 297 296 295 295 296 294 292 294 299 303 310 320 326 332
Height
3167 3167 3169 3171 3173 3176 3177 3178 3177 3178 3179 3180 3181 3182 3181 3182 3182 3182 3181 3180 3178 3177 3176 3173 3171 3168 3166 3164 3161 3158 3156 3153 3151
3162 3164 3167 3168 3171 3174 3176 3175 3176 3175 3177 3178 3179 3180 3181 3180 3180 3180 3179 3179 3178 3176 3175 3172 3170 3168 3166 3163 3161 3158 3155 3153 3150
3158 3162 3165 3167 3168 3170 3171 3172 3173 3173 3175 3176 3176 3176 3177 3178 3179 3179 3178 3177 3176 3175 3173 3171 3169 3167 3165 3162 3159 3156 3154 3151 3147
3155 3158 3162 3162 3165 3166 3169 3169 3169 3172 3173 3174 3173 3173 3174 3176 3177 3177 3176 3175 3174 3173 3172 3170 3168 3165 3162 3159 3156 3153 3150 3147 3144
3156 3158 3159 3158 3159 3161 3164 3166 3167 3169 3169 3169 3169 3169 3170 3172 3173 3174 3174 3173 3172 3172 3170 3168 3166 3163 3160 3157 3153 3151 3147 3144 3141
3151 3150 3154 3156 3155 3157 3160 3161 3162 3164 3164 3165 3166 3167 3168 3169 3170 3171 3171 3171 3171 3169 3167 3165 3163 3161 3158 3154 3151 3148 3145 3141 3138
3150 3149 3149 3152 3152 3152 3155 3159 3159 3160 3160 3160 3160 3161 3163 3165 3168 3170 3170 3170 3169 3167 3166 3163 3161 3159 3155 3151 3147 3144 3142 3138 3135
3146 3146 3146 3144 3146 3147 3151 3154 3156 3156 3155 3155 3157 3157 3160 3162 3164 3167 3169 3169 3167 3165 3163 3162 3160 3157 3152 3148 3144 3141 3138 3136 3134
3141 3143 3145 3145 3147 3148 3147 3153 3153 3148 3144 3119 3132 3146 3157 3161 3162 3165 3166 3166 3164 3162 3160 3158 3156 3153 3149 3145 3141 3137 3135 3133 3129
3137 3140 3142 3145 3145 3147 3148 3150 3150 3144 3132 3154 3158 3142 3154 3159 3161 3162 3162 3161 3159 3157 3156 3155 3151 3148 3146 3141 3138 3135 3132 3128 3124
3135 3138 3141 3144 3146 3149 3148 3149 3151 3152 3150 3148 3148 3147 3151 3150 3152 3156 3157 3157 3155 3154 3152 3149 3146 3144 3141 3137 3133 3129 3126 3123 3119
3137 3139 3141 3143 3146 3147 3147 3148 3146 3146 3146 3145 3144 3145 3148 3151 3152 3152 3154 3155 3153 3150 3147 3144 3141 3139 3137 3132 3129 3126 3123 3120 3116
3136 3138 3139 3141 3143 3144 3141 3144 3143 3144 3143 3142 3142 3146 3149 3150 3149 3151 3152 3152 3150 3147 3142 3139 3137 3134 3132 3128 3125 3122 3119 3116 3112
3133 3134 3136 3138 3139 3135 3128 3136 3140 3142 3141 3140 3142 3143 3146 3147 3149 3149 3149 3148 3145 3141 3138 3135 3133 3130 3128 3124 3120 3117 3115 3112 3108
3130 3131 3133 3134 3137 3133 3126 3134 3139 3140 3140 3141 3141 3142 3142 3144 3146 3147 3146 3144 3140 3137 3134 3131 3128 3126 3123 3119 3117 3113 3110 3107 3104
3129 3131 3133 3134 3134 3133 3135 3136 3139 3141 3142 3140 3141 3143 3142 3143 3143 3142 3140 3138 3136 3133 3130 3127 3125 3123 3119 3117 3114 3111 3108 3104 3100
3125 3127 3129 3131 3133 3133 3132 3133 3135 3137 3137 3138 3138 3139 3139 3140 3138 3137 3136 3134 3132 3130 3127 3124 3121 3118 3116 3113 3110 3108 3104 3100 3096
3121 3121 3124 3126 3127 3127 3127 3128 3130 3132 3134 3134 3135 3136 3138 3137 3134 3132 3132 3130 3127 3125 3122 3120 3116 3114 3111 3109 3106 3104 3100 3095 3090
3117 3119 3121 3122 3122 3122 3122 3125 3128 3129 3130 3132 3133 3134 3135 3134 3131 3129 3127 3125 3122 3119 3116 3113 3110 3108 3107 3105 3103 3100 3096 3091 3087
3114 3117 3120 3121 3123 3122 3121 3122 3124 3126 3128 3129 3129 3129 3129 3129 3128 3125 3122 3120 3118 3115 3112 3110 3107 3105 3104 3102 3100 3096 3092 3088 3083